Date String (YYYY-MM-DD hh:mm:ss) UTC,Instrument flags,absolute air pressure of the measurement (hPa),sample flow rate (lpm),inlet stack bypass flow (lpm),air temperature of the measurement (°C),ambient temperature measured by the external sensor (°C),aerosol sample conditioner tube jacket temperature (°C),OPC LED temperature (°C),internal box temperature (°C),relative humidity of the measurement (%),span deviation,mass concentration of particles derived from Lorenz-Mie calculation of OPC scattering (μg/m³),mass concentration of particles derived from Lorenz-Mie calculation of OPC scattering (μg/m³),mass concentration of particles derived from Lorenz-Mie calculation of OPC scattering (μg/m³)
DateTimeUTC,F1_M11,P_M11,Q1_M11,Q2_M11,T1_M11,T2_M11,T3_M11,T4_M11,T5_M11,U1_M11,ZSPAN_M11,X2_M11,X0_M11,X1_M11
2023-11-07 10:00:00,SystemResetWarning,0822.7,5.00,000.00,028.1,027.1,000.0,036.5,029.5,9.1,0000.0,0003.58,0008.41,0002.98
2023-11-07 10:01:00,SystemResetWarning,0822.4,5.00,000.00,028.1,027.1,000.0,036.5,029.5,8.9,0000.0,0003.65,0009.34,0003.08
2023-11-07 10:02:00,SystemResetWarning,0822.4,5.00,000.00,028.1,027.1,000.0,036.5,029.5,8.8,0000.0,0003.72,0009.82,0003.14
2023-11-07 10:03:00,SystemResetWarning,0822.7,5.00,000.00,028.1,027.2,000.0,036.5,029.5,8.8,0000.0,0003.73,0009.91,0003.17
2023-11-07 10:04:00,SystemResetWarning,0822.6,5.00,000.00,028.1,027.1,000.0,036.5,029.5,8.8,0000.0,0003.73,0010.00,0003.20
2023-11-07 10:05:00,SystemResetWarning,0822.6,5.00,000.00,028.1,027.1,000.0,036.5,029.5,9.0,0000.0,0003.74,0010.20,0003.19
2023-11-07 10:06:00,SystemResetWarning,0822.6,5.00,000.00,028.1,027.1,000.0,036.5,029.5,9.0,0000.0,0003.75,0010.23,0003.19
2023-11-07 10:07:00,SystemResetWarning,0822.9,5.00,000.00,028.1,027.1,000.0,036.5,029.5,9.0,0000.0,0003.72,0010.14,0003.18
2023-11-07 10:08:00,SystemResetWarning,0823.1,4.99,000.00,028.1,027.1,000.0,036.5,029.5,9.0,0000.0,0003.71,0010.12,0003.17
2023-11-07 10:09:00,SystemResetWarning,0822.6,5.00,000.00,028.1,027.1,000.0,036.5,029.5,9.0,0000.0,0003.75,0010.04,0003.17
2023-11-07 10:10:00,SystemResetWarning,0822.8,5.00,000.00,028.1,027.1,000.0,036.5,029.5,9.1,0000.0,0003.76,0009.77,0003.16
2023-11-07 10:11:00,SystemResetWarning,0822.5,5.00,000.00,028.1,027.1,000.0,036.5,029.5,9.1,0000.0,0003.75,0009.57,0003.16
2023-11-07 10:12:00,SystemResetWarning,0822.4,5.01,000.00,028.1,027.1,000.0,036.5,029.5,9.0,0000.0,0003.75,0009.03,0003.16
2023-11-07 10:13:00,SystemResetWarning,0822.6,5.00,000.00,028.1,027.1,000.0,036.5,029.5,9.1,0000.0,0003.76,0008.66,0003.16
2023-11-07 10:14:00,SystemResetWarning,0822.8,5.00,000.00,028.1,027.1,000.0,036.5,029.5,9.2,0000.0,0003.80,0008.87,0003.18
2023-11-07 10:15:00,SystemResetWarning,0822.5,5.00,000.00,028.1,027.1,000.0,036.5,029.5,9.1,0000.0,0003.84,0008.88,0003.19
2023-11-07 10:16:00,SystemResetWarning,0822.7,4.99,000.00,028.1,027.1,000.0,036.5,029.5,9.0,0000.0,0003.88,0008.81,0003.21
2023-11-07 10:17:00,SystemResetWarning,0822.7,5.00,000.00,028.1,027.1,000.0,036.5,029.5,9.1,0000.0,0003.88,0008.92,0003.22
2023-11-07 10:18:00,SystemResetWarning,0822.6,4.99,000.00,028.1,027.1,000.0,036.5,029.5,9.2,0000.0,0003.90,0009.06,0003.24
2023-11-07 10:19:00,SystemResetWarning,0822.4,5.00,000.00,028.1,027.1,000.0,036.5,029.4,9.0,0000.0,0003.95,0009.29,0003.26
2023-11-07 10:20:00,SystemResetWarning,0822.4,5.01,000.00,028.1,027.1,000.0,036.5,029.4,8.9,0000.0,0003.95,0009.26,0003.29
2023-11-07 10:21:00,SystemResetWarning,0822.4,5.00,000.00,028.1,027.1,000.0,036.5,029.5,9.2,0000.0,0003.91,0009.06,0003.29
2023-11-07 10:22:00,SystemResetWarning,0822.4,5.00,000.00,028.1,027.1,000.0,036.5,029.4,9.3,0000.0,0003.89,0008.58,0003.30
2023-11-07 10:23:00,SystemResetWarning,0822.4,5.00,000.00,028.1,027.1,000.0,036.5,029.4,9.3,0000.0,0003.88,0008.17,0003.31
2023-11-07 10:24:00,SystemResetWarning,0822.4,4.99,000.00,028.1,027.0,000.0,036.5,029.4,9.2,0000.0,0003.86,0008.48,0003.31
2023-11-07 10:25:00,SystemResetWarning,0822.3,5.00,000.00,028.1,027.0,000.0,036.5,029.5,9.2,0000.0,0003.85,0008.71,0003.31
2023-11-07 10:26:00,SystemResetWarning,0822.3,5.00,000.00,028.1,027.0,000.0,036.5,029.4,9.2,0000.0,0003.82,0008.57,0003.31
2023-11-07 10:27:00,SystemResetWarning,0822.3,5.01,000.00,028.1,027.0,000.0,036.5,029.5,9.1,0000.0,0003.83,0008.69,0003.31
2023-11-07 10:28:00,SystemResetWarning,0822.4,5.01,000.00,028.1,027.0,000.0,036.5,029.5,8.8,0000.0,0003.83,0008.54,0003.32
2023-11-07 10:29:00,SystemResetWarning,0822.4,5.00,000.00,028.1,027.0,000.0,036.5,029.5,8.8,0000.0,0003.83,0008.51,0003.31
2023-11-07 10:30:00,SystemResetWarning,0822.4,5.01,000.00,028.1,027.0,000.0,036.5,029.5,8.8,0000.0,0003.74,0008.18,0003.29
2023-11-07 10:31:00,SystemResetWarning,0822.4,5.00,000.00,028.1,027.0,000.0,036.5,029.4,8.8,0000.0,0003.69,0008.08,0003.25
2023-11-07 10:32:00,SystemResetWarning,0822.4,5.00,000.00,028.1,026.9,000.0,036.5,029.4,8.7,0000.0,0003.65,0008.05,0003.23
2023-11-07 10:33:00,SystemResetWarning,0822.4,5.00,000.00,028.1,026.9,000.0,036.5,029.4,8.8,0000.0,0003.68,0008.15,0003.22
2023-11-07 10:34:00,SystemResetWarning,0822.3,5.00,000.00,028.1,026.9,000.0,036.5,029.5,8.7,0000.0,0003.66,0008.13,0003.19
2023-11-07 10:35:00,SystemResetWarning,0822.3,5.00,000.00,028.1,026.9,000.0,036.5,029.4,8.5,0000.0,0003.66,0008.06,0003.14
2023-11-07 10:36:00,SystemResetWarning,0822.4,5.00,000.00,028.1,027.0,000.0,036.5,029.5,8.5,0000.0,0003.64,0007.57,0003.12
2023-11-07 10:37:00,SystemResetWarning,0822.4,5.00,000.00,028.1,027.0,000.0,036.5,029.5,8.5,0000.0,0003.60,0007.39,0003.09
2023-11-07 10:38:00,SystemResetWarning,0822.4,5.00,000.00,028.1,027.0,000.0,036.5,029.5,8.5,0000.0,0003.57,0007.44,0003.02
2023-11-07 10:39:00,SystemResetWarning,0822.4,5.00,000.00,028.1,027.0,000.0,036.5,029.5,8.6,0000.0,0003.54,0007.73,0002.94
2023-11-07 10:40:00,SystemResetWarning,0822.4,5.00,000.00,028.1,027.0,000.0,036.5,029.4,8.6,0000.0,0003.51,0008.49,0002.90
2023-11-07 10:41:00,SystemResetWarning,0822.4,5.00,000.00,028.1,027.0,000.0,036.5,029.4,8.6,0000.0,0003.56,0008.66,0002.90
2023-11-07 10:42:00,SystemResetWarning,0822.4,5.00,000.00,028.1,027.0,000.0,036.5,029.4,8.6,0000.0,0003.56,0009.05,0002.90
2023-11-07 10:43:00,SystemResetWarning,0822.4,5.00,000.00,028.1,027.0,000.0,036.5,029.4,8.6,0000.0,0003.56,0009.08,0002.88
2023-11-07 10:44:00,SystemResetWarning,0822.4,5.01,000.00,028.1,027.0,000.0,036.5,029.4,8.6,0000.0,0003.56,0009.27,0002.85
2023-11-07 10:45:00,SystemResetWarning,0822.4,5.00,000.00,028.0,027.0,000.0,036.5,029.4,8.5,0000.0,0003.54,0009.26,0002.82
2023-11-07 10:46:00,SystemResetWarning,0822.4,5.01,000.00,028.0,027.0,000.0,036.5,029.4,8.5,0000.0,0003.52,0009.09,0002.83
2023-11-07 10:47:00,SystemResetWarning,0822.3,5.00,000.00,028.0,027.0,000.0,036.5,029.5,8.5,0000.0,0003.49,0008.99,0002.81
2023-11-07 10:48:00,SystemResetWarning,0822.3,5.00,000.00,028.1,027.0,000.0,036.5,029.5,8.4,0000.0,0003.48,0008.86,0002.80
2023-11-07 10:49:00,SystemResetWarning,0822.4,5.00,000.00,028.1,027.0,000.0,036.5,029.5,8.4,0000.0,0003.49,0008.54,0002.80
2023-11-07 10:50:00,SystemResetWarning,0822.4,5.00,000.00,028.1,027.0,000.0,036.5,029.5,8.4,0000.0,0003.49,0008.76,0002.80
2023-11-07 10:51:00,SystemResetWarning,0822.4,5.00,000.00,028.1,027.1,000.0,036.5,029.4,8.4,0000.0,0003.49,0008.52,0002.79
2023-11-07 10:52:00,SystemResetWarning,0822.4,5.00,000.00,028.1,027.0,000.0,036.5,029.4,8.4,0000.0,0003.45,0008.76,0002.75
2023-11-07 10:53:00,SystemResetWarning,0822.4,5.00,000.00,028.1,027.0,000.0,036.5,029.4,8.5,0000.0,0003.44,0008.49,0002.73
2023-11-07 10:54:00,SystemResetWarning,0822.4,5.00,000.00,028.1,027.0,000.0,036.5,029.4,8.5,0000.0,0003.42,0008.52,0002.71
2023-11-07 10:55:00,SystemResetWarning,0822.3,5.00,000.00,028.1,027.0,000.0,036.5,029.4,8.3,0000.0,0003.38,0008.33,0002.70
2023-11-07 10:56:00,SystemResetWarning,0822.4,5.00,000.00,028.1,027.0,000.0,036.5,029.4,8.3,0000.0,0003.40,0008.46,0002.71
2023-11-07 10:57:00,SystemResetWarning,0822.4,5.00,000.00,028.1,027.0,000.0,036.5,029.4,8.4,0000.0,0003.39,0008.91,0002.70
2023-11-07 10:58:00,SystemResetWarning,0822.4,4.99,000.00,028.1,027.0,000.0,036.5,029.4,8.5,0000.0,0003.36,0009.65,0002.68
2023-11-07 10:59:00,SystemResetWarning,0822.3,5.00,000.00,028.0,026.9,000.0,036.4,029.4,8.3,0000.0,0003.36,0010.20,0002.68
